Tracking 19570 objects as of 22-Feb-2019
HD Live streaming from Space Station
objects crossing your sky now

COSMOS 862

Track COSMOS 862 now!
COSMOS 862 is classified as:


NORAD ID: 9495
Int'l Code: 1976-105A
Perigee: 5,046.6 km
Apogee: 35,376.4 km
Inclination: 69.6 °
Period: 718.9 minutes
Semi major axis: 26582 km
RCS: 11.7728 m2 (large)
Launch date: October 22, 1976
Source: Commonwealth of Independent States (former USSR) (CIS)
Launch site: PLESETSK MISSILE AND SPACE COMPLEX (PKMTR)
aabbcc
Your satellite tracking list
Your tracking list is empty




NASA's NSSDC Master Catalog

Two Line Element Set (TLE):
1  9495U 76105A   19051.44781643  .00000037  00000-0  00000+0 0  9998
2  9495  69.6405 198.6970 5704851 274.7579  25.8104  2.00313421188047
Source of the keplerian elements: AFSPC